Change the Weather History Date:

Tuesday, December 17, 2013

  Actual Average Record
Temperature  
Mean Temperature -4 °F 22 °F  
Max Temperature 11 °F 31 °F 56 °F (1984)
Min Temperature -20 °F 14 °F -20 °F (2013)
Degree Days  
Heating Degree Days 69 43  
Month to date heating degree days 776 670  
Since 1 July heating degree days 2680 2516  
Cooling Degree Days 0 0  
Month to date cooling degree days 0  
Year to date cooling degree days 264  
Moisture  
Dew Point -7 °F    
Average Humidity 84    
Maximum Humidity 95    
Minimum Humidity 73    
Precipitation  
Precipitation T in 0.09 in 2.62 in (2000)
Month to date precipitation 0.48 1.64  
Year to date precipitation 35.57 36.17  
Sea Level Pressure  
Sea Level Pressure 30.15 in    
Wind  
Wind Speed 1 mph (East)    
Max Wind Speed 8 mph    
Max Gust Speed 12 mph    
Visibility 4 miles    
Events Snow    
T = Trace of Precipitation, MM = Missing Value Source: NWS Daily Summary

Daily Weather History Graph

Daily Weather History Graph

Search for Another Location

Airport or City:

Trip Planner

Search our weather history database for the weather conditions in past years. The results will help you decide how hot, cold, wet, or windy it might be!

Date:

Astronomy

Dec. 17, 2013 Rise Set
Actual Time 7:20 AM EST 4:12 PM EST
Civil Twilight 6:47 AM EST 4:46 PM EST
Nautical Twilight 6:10 AM EST 5:22 PM EST
Astronomical Twilight 5:35 AM EST 5:57 PM EST
Moon 4:52 PM EST (12/17) 7:12 AM EST (12/17)
Length of Visible Light 9h 58m
Length of Day
8h 52m
Full, 100% of the Moon is Illuminated
Dec 17
Full
Dec 25
Last Quarter
Jan 1
New
Jan 7
First Quarter
Jan 15
Full

Hourly Weather History & Observations

Time (EST) Temp. Windchill Dew Point Humidity Pressure Visibility Wind Dir Wind Speed Gust Speed Precip Events Conditions
12:51 AM -11.0 °F - -14.1 °F 86% 30.29 in 10.0 mi Calm Calm - N/A   Clear
1:51 AM -13.0 °F - -16.1 °F 86% 30.30 in 10.0 mi Calm Calm - N/A   Clear
2:51 AM -13.0 °F - -17.0 °F 82% 30.31 in 10.0 mi Calm Calm - N/A   Clear
3:51 AM -14.1 °F - -17.0 °F 87% 30.30 in 9.0 mi Calm Calm - N/A   Clear
4:51 AM -14.1 °F - -17.0 °F 87% 30.29 in 10.0 mi Calm Calm - N/A   Clear
5:51 AM -18.0 °F - -23.1 °F 78% 30.32 in 10.0 mi Calm Calm - N/A   Clear
6:51 AM -18.0 °F - -22.0 °F 82% 30.32 in 9.0 mi Calm Calm - N/A   Clear
7:40 AM -20.2 °F - -23.8 °F 83% 30.20 in 4.0 mi Calm Calm - N/A   Partly Cloudy
7:51 AM -18.0 °F - -20.9 °F 87% 30.32 in 6.0 mi Calm Calm - N/A   Clear
8:29 AM -16.6 °F - -20.2 °F 84% 30.18 in 2.5 mi Calm Calm - N/A   Partly Cloudy
8:34 AM -16.6 °F - -18.4 °F 92% 30.18 in 1.2 mi Calm Calm - N/A   Scattered Clouds
8:40 AM -16.6 °F - -18.4 °F 92% 30.19 in 1.5 mi Calm Calm - N/A   Mostly Cloudy
8:51 AM -14.1 °F - -16.1 °F 91% 30.31 in 1.2 mi Calm Calm - N/A   Mostly Cloudy
9:03 AM -14.8 °F - -14.8 °F 100% 30.19 in 2.0 mi Calm Calm - N/A   Scattered Clouds
9:23 AM -14.8 °F -24.8 °F -16.6 °F 92% 30.17 in 5.0 mi ENE 3.5 mph - 0.00 in   Clear
9:51 AM -13.0 °F - -15.0 °F 91% 30.30 in 5.0 mi Calm Calm - 0.00 in   Partly Cloudy
10:51 AM -8.0 °F - -11.9 °F 83% 30.25 in 8.0 mi Calm Calm - 0.00 in   Clear
11:51 AM -2.9 °F - -8.0 °F 79% 30.23 in 8.0 mi Calm Calm - N/A   Overcast
12:12 PM -2.2 °F - -7.6 °F 78% 30.11 in 2.0 mi Calm Calm - N/A   Haze
12:26 PM -0.4 °F - -5.8 °F 78% 30.11 in 1.2 mi Calm Calm - 0.00 in Snow Light Snow
12:46 PM -0.4 °F - -5.8 °F 78% 30.09 in 0.8 mi Calm Calm - 0.00 in Snow Light Snow
12:51 PM -0.0 °F - -5.1 °F 79% 30.21 in 0.8 mi Calm Calm - 0.00 in Snow Light Snow
12:59 PM -0.4 °F - -4.0 °F 85% 30.09 in 1.0 mi Calm Calm - 0.00 in Snow Light Snow
1:10 PM 1.4 °F - -4.0 °F 78% 30.08 in 1.2 mi Calm Calm - 0.00 in Snow Light Snow
1:19 PM -0.4 °F -10.4 °F -4.0 °F 85% 30.08 in 1.0 mi ENE 4.6 mph - 0.00 in Snow Light Snow
1:33 PM 1.4 °F - -2.2 °F 85% 30.08 in 0.8 mi Calm Calm - 0.00 in Snow Light Snow
1:48 PM -0.4 °F -8.3 °F -4.0 °F 85% 30.07 in 1.0 mi NE 3.5 mph - 0.00 in Snow Light Snow
1:51 PM -0.0 °F -7.9 °F -4.0 °F 83% 30.19 in 1.0 mi NE 3.5 mph - 0.00 in Snow Light Snow
1:58 PM -0.4 °F -8.3 °F -4.0 °F 85% 30.07 in 1.2 mi NE 3.5 mph - 0.00 in Snow Light Snow
2:06 PM 1.4 °F -6.2 °F -4.0 °F 78% 30.07 in 1.5 mi NE 3.5 mph - 0.00 in Snow Light Snow
2:49 PM 1.4 °F - -2.2 °F 85% 30.05 in 2.0 mi Calm Calm - 0.00 in Snow Light Snow
2:51 PM 1.9 °F - -2.0 °F 83% 30.17 in 2.0 mi Calm Calm - 0.00 in Snow Light Snow
3:51 PM 3.0 °F - -0.9 °F 84% 30.16 in 1.5 mi Calm Calm - 0.00 in Snow Light Snow
4:03 PM 3.2 °F - -0.4 °F 85% 30.05 in 1.2 mi Calm Calm - 0.00 in Snow Light Snow
4:08 PM 3.2 °F - -0.4 °F 85% 30.04 in 0.8 mi Calm Calm - 0.00 in Snow Light Snow
4:23 PM 3.2 °F - -0.4 °F 85% 30.04 in 1.2 mi Calm Calm - 0.00 in Snow Light Snow
4:29 PM 3.2 °F - -0.4 °F 85% 30.04 in 1.0 mi Calm Calm - 0.00 in Snow Light Snow
4:37 PM 3.2 °F - -0.4 °F 85% 30.04 in 0.8 mi Calm Calm - 0.00 in Snow Light Snow
4:46 PM 3.2 °F - -0.4 °F 85% 30.04 in 1.0 mi Calm Calm - 0.00 in Snow Light Snow
4:51 PM 3.9 °F - -0.0 °F 84% 30.15 in 0.8 mi Calm Calm - 0.00 in Snow Light Snow
4:59 PM 3.2 °F - -0.4 °F 85% 30.04 in 1.0 mi Calm Calm - 0.00 in Snow Light Snow
5:04 PM 3.2 °F - -0.4 °F 85% 30.04 in 1.5 mi Calm Calm - 0.00 in Snow Light Snow
5:23 PM 3.2 °F - -0.4 °F 85% 30.04 in 2.0 mi Calm Calm - 0.00 in Snow Light Snow
5:51 PM 3.9 °F - 1.0 °F 88% 30.16 in 2.0 mi Calm Calm - 0.00 in Snow Light Snow
6:07 PM 3.2 °F - 1.4 °F 92% 30.05 in 3.0 mi Calm Calm - 0.00 in Snow Light Snow
6:31 PM 8.6 °F -1.3 °F 1.4 °F 73% 30.04 in 10.0 mi South 5.8 mph - 0.00 in   Overcast
6:51 PM 8.1 °F -3.2 °F 1.9 °F 76% 30.16 in 10.0 mi South 6.9 mph - 0.00 in   Overcast
7:51 PM 9.0 °F -0.9 °F 3.0 °F 77% 30.15 in 10.0 mi SSW 5.8 mph - N/A   Overcast
8:51 PM 10.0 °F - 3.9 °F 76% 30.14 in 10.0 mi Calm Calm - N/A   Overcast
9:51 PM 8.1 °F - 3.9 °F 83% 30.14 in 10.0 mi Calm Calm - N/A   Overcast
10:51 PM 7.0 °F - 3.9 °F 87% 30.13 in 10.0 mi Calm Calm - N/A   Overcast
11:51 PM 8.1 °F - 3.9 °F 83% 30.09 in 10.0 mi Calm Calm - N/A   Overcast